Location: Unspecified
(0.0000°N, 0.0000°E)
Time: 20:03:08
(UTC+00:00)

ISS - Pass Details

Date: 19 January 2018
Orbit: 402 x 407 km, 51.6° (Epoch: 17 January)

Event Time Altitude Azimuth Distance (km) Brightness Sun altitude
Rises 18:57:22 0° 229° (SW) 2,308 1.5 -10.9°
Reaches altitude 10° 18:59:34 10° 239° (WSW) 1,447 0.4 -11.4°
Maximum altitude 19:02:32 33° 305° (NW) 693 -2.3 -12.1°
Drops below altitude 10° 19:05:29 10° 12° (NNE) 1,440 -1.4 -12.8°
Enters shadow 19:05:43 - 13° (NNE) 1,526 -1.2 -12.9°
